ONEWEB-0018, 45434

Orbit data source: Space-Track

ONEWEB-0018, 45434 is a payload satellite owned by One Web (UK) in LEO that was launched on Sat, 21 Mar 2020 UTC via a SOYUZ-2-1B launch vehicle from the Tyuratam Missile And Space Complex (TTMTR). Payload-class satellites include a variety of spacecraft equipped with specific instruments for various scientific and technological missions. These include communications satellites like Starlink; space stations such as the ISS; scientific satellites like the Hubble; Earth observation satellites from companies like Planet Labs, Umbra, and HawkEye 360; GPS; miniature CubeSats for education and research; and military/defense satellites.

Loading next visibility...
Identifier
45434, 2020-020L
Orbit
LEO
Country
Flag of UKUK
Related business
Manufacturer
One Web
Mission
Operational Commercial Communications
Bus & Motor
ARROW, Unknown motor
Mass
148 kg wet, ~140 kg dry
Launch date (UTC)
2020-03-21 (6 years ago)
Launch vehicle
SOYUZ-2-1B
Launch site
Tyuratam Missile And Space Complex (TTMTR)
Object type
Payload
Rocket body
Debris
Shape & HBR
Trap Box + 2 Pan, 6.7 m
Radar Cross Section
3.464 m², Large (>1 m²)

Expand to show TLE details & history
Last TLE update: 2 days ago

TLE from 2 days ago
0 ONEWEB-0018
1 45434U 20020L   26171.34594157  .00000459  00000-0  12604-2 0  9992
2 45434  87.8885  20.4374 0001432  81.6578 278.4712 13.11417574303046
Epoch: 2026-06-20T08:18Z
TLE epoch observation values (Epoch: 2026-06-20T08:18:09.351Z)
Latitude
-0.00006°
Longitude
-12.66345°
Altitude
1,220.409 km
Speed
7.244 km/s
True Right ascension
01h 21m 44s
True Declination
0° 00' 00"
Sunlit
Object was in daylight at epoch
Visualization orbit readout
Latitude
Unknown
Longitude
Unknown
Altitude
Unknown
Speed
Unknown
Apparent Right ascension
Unknown
Apparent Declination
Unknown
Sunlit
N/A
Visualization observer readout
Local Sidereal Time
21:44:37
Azimuth
Unknown
Elevation
Unknown
Doppler factor
Unknown
Orbital elements
Apogee altitude
1,215.886 km
Perigee altitude
1,213.711 km
Semi-major axis
7,592.935 km
Eccentricity
0.00014
Inclination
87.8885°
RAAN
20.4374°
Arg. of periapsis
81.6578°
True anomaly
278.45497°
Mean anomaly
278.4712°
Eccentric anomaly
278.46308°
Mean motion
3.28041 °/min
Orbital period
109.74 mins
BSTAR
0.0012604
Loading maneuver chart data...
Computing Atmospheric mass density...
Loading historical data...
Loading historical data...
Loading historical data...
Loading historical data...
Loading historical data...
Loading historical data...
Loading historical data...

Documentation

Showing up to 5 results
|